This demonstration page uses our WeatherBlox Daily Observations layout. Learn more.

Left ArrowRight Arrow

Hourly Observations for November 22, 2020

Temp ( °F °C ) Dew Point ( °F °C ) Humidity (%) Winds ( mph kmh ) Pressure ( in mb ) Visibility ( mi km ) Precip ( " mm )
12:51 am 00:51 Clear 50 10 34 1.1 54 54 Calm 29.98 1015 10 16 0.00 0.00
1:51 am 01:51 Clear 50 10 35 1.7 57 57 SE 3 6 29.98 1015 10 16 0.00 0.00
2:51 am 02:51 Clear 49 9.4 34 1.1 56 56 Calm 29.97 1015 10 16 0.00 0.00
3:51 am 03:51 Clear 48 8.9 33 0.6 56 56 Calm 29.97 1015 10 16 0.00 0.00
4:51 am 04:51 Clear 45 7.2 32 0 61 61 Calm 29.99 1016 10 16 0.00 0.00
5:51 am 05:51 Clear 46 7.8 33 0.6 61 61 SE 5 7 30.01 1016 10 16 0.00 0.00
6:51 am 06:51 Clear 51 10.6 35 1.7 54 54 ESE 8 13 30.01 1016 10 16 0.00 0.00
7:51 am 07:51 Sunny 59 15 38 3.3 46 46 ESE 15 24 30.01 1016 10 16 0.00 0.00
8:51 am 08:51 Sunny 63 17.2 38 3.3 40 40 ESE 15 24 30.00 1016 10 16 0.00 0.00
9:51 am 09:51 Sunny 68 20 38 3.3 33 33 ESE 13 20 30.00 1016 10 16 0.00 0.00
10:51 am 10:51 Sunny 72 22.2 38 3.3 29 29 ESE 9 15 29.98 1015 10 16 0.00 0.00
11:51 am 11:51 Sunny 75 23.9 38 3.3 26 26 SE 9 15 29.94 1014 10 16 0.00 0.00
12:51 pm 12:51 Sunny 78 25.6 37 2.8 23 23 ESE 9 15 29.90 1013 10 16 0.00 0.00
1:51 pm 13:51 Sunny 81 27.2 37 2.8 21 21 ESE 12 19 29.85 1011 10 16 0.00 0.00
2:51 pm 14:51 Sunny 82 27.8 36 2.2 19 19 SE 9 15 29.83 1010 10 16 0.00 0.00
3:51 pm 15:51 Sunny 82 27.8 35 1.7 18 18 SE 6 9 29.81 1010 10 16 0.00 0.00
4:51 pm 16:51 Sunny 79 26.1 35 1.7 20 20 E 5 7 29.81 1010 10 16 0.00 0.00
5:51 pm 17:51 Clear 75 23.9 35 1.7 23 23 E 9 15 29.81 1010 10 16 0.00 0.00
6:51 pm 18:51 Clear 73 22.8 35 1.7 25 25 E 9 15 29.82 1010 10 16 0.00 0.00
7:51 pm 19:51 Clear 72 22.2 36 2.2 27 27 E 8 13 29.82 1010 10 16 0.00 0.00
8:51 pm 20:51 Clear 66 18.9 35 1.7 32 32 S 3 6 29.84 1010 10 16 0.00 0.00
9:51 pm 21:51 Clear 69 20.6 45 7.2 42 42 ESE 14 22 29.83 1010 10 16 0.00 0.00
10:51 pm 22:51 Clear 66 18.9 45 7.2 47 47 E 12 19 29.84 1011 10 16 0.00 0.00
11:51 pm 23:51 Clear 64 17.8 45 7.2 50 50 ESE 9 15 29.83 1010 10 16 0.00 0.00

Powered by AerisWeather